Voltar ao catálogo

CZ-6A DEB

AtivoPO
NORAD 54936·DEBRIS·🇨🇳 China

Lançado Nov 11, 2022 de Taiyuan Satellite Launch Center

Loading…

Próximas Passagens (próximas 24 horas)

TLE

AtualizadoSource: Space-Track

Época: Sep 14, 2026, 08:01 UTC

1 54936U 22151RZ  26257.33453109  .00007331  00000-0  12184-2 0  9990
2 54936  99.1262  40.0236 0089265  87.9568 273.1853 14.67832698202597

Acompanhe CZ-6A DEB em tempo real com AllMySat

Download on the App Store